SCP
0 0 0 0 0 0 0 0 0 0 0 0 0 0 0 0 0 0 0 0 0 0 0 0 0 0 0
0 0 0 0 0 0 0 0 0 0 0 0 0 0 0 0 0 0 0 0 0 0 0 0 0 0 0
0 0 0 0 0 0 0 0 0 0 0 0 0 0 0 0 0 0 0 -0 0 0 0 0 0 0 0
0 0 0 0 0 0 0 0 0 0 0 0 0 0 0 0 0 0 0 -0 -0 0 0 -0 0 0 0
0 0 0 0 0 0 0 0 0 0 1 0 0 0 0 0 0 0 0 -0 -0 -0 -0 -0 0 0 0
0 0 0 0 0 0 0 0 0 0 1 1 0 0 0 0 0 0 0 0 -0 0 0 0 -0 0 0
0 0 0 0 0 0 0 0 0 0 0 0 0 0 0 0 0 0 0 0 0 0 0 0 0 0 0
0 0 0 0 0 0 0 0 0 0 0 0 0 0 0 0 0 0 0 0 0 0 0 0 0 0 0
0 0 0 0 0 0 0 0 0 0 0 0 0 0 0 0 0 0 0 0 0 0 0 0 0 0 0
0 0 0 0 0 0 0 0 0 0 0 0 0 0 0 0 0 0 0 0 0 0 0 0 0 0 0
0 0 0 0 0 0 0 0 0 0 0 0 0 0 0 0 0 0 0 0 0 0 0 0 0 0 0
0 0 0 0 0 0 0 0 0 0 0 0 0 0 0 0 0 0 0 0 0 0 0 0 0 0 0
0 0 0 0 0 0 0 0 0 0 0 0 0 0 0 0 0 0 0 0 0 0 0 0 0 0 0
0 0 0 0 0 0 0 0 0 0 0 0 0 0 0 0 0 0 0 0 0 0 0 0 0 0 0
0 0 0 0 0 0 0 0 0 0 0 0 0 0 0 0 0 0 0 0 0 0 0 0 0 0 0
0 0 0 0 0 0 0 0 0 0 0 0 0 0 0 0 0 0 0 0 0 0 0 0 0 0 0
Wind_Speed_500mb
23 23 25 28 28 31 32 31 30 27 28 34 40 44 39 38 28 20 18 16 16 15 14 16 16 15 13
14 28 34 33 31 32 31 32 34 34 27 28 39 46 43 38 28 25 17 18 18 16 14 13 13 12 10
30 29 18 32 35 36 32 33 34 36 34 30 39 48 47 38 32 23 25 25 20 17 15 14 13 10 9
40 40 39 17 39 41 40 37 36 38 36 38 42 43 46 37 32 32 28 27 20 17 14 12 15 13 11
23 43 47 56 32 46 45 42 38 42 42 42 46 49 50 41 37 35 31 26 21 17 14 13 14 13 10
23 24 38 62 68 53 51 49 42 43 45 49 49 48 56 43 41 38 33 31 24 17 12 11 9 8 6
29 28 27 39 48 60 57 58 46 43 47 52 53 55 58 43 39 35 37 32 29 21 13 8 3 1 6
28 28 31 26 45 41 66 58 49 45 49 52 51 52 54 40 44 38 42 35 30 21 14 9 6 6 7
29 26 28 19 44 62 61 58 50 48 46 49 53 51 46 39 38 44 43 36 31 27 20 16 12 11 15
25 21 17 25 17 61 63 53 51 47 43 46 47 49 47 43 43 44 42 41 36 31 27 24 22 19 22
18 19 15 13 22 37 40 43 47 49 45 42 45 43 45 44 44 44 43 40 36 33 33 29 28 29 29
17 24 16 10 20 14 55 49 50 50 50 49 47 48 44 43 44 41 39 40 37 35 33 32 31 30 34
12 17 20 16 20 29 33 46 50 51 50 53 52 48 46 46 38 37 39 39 38 36 35 31 31 34 36
16 14 11 12 9 23 28 34 48 45 49 54 55 54 50 46 42 39 35 37 36 34 30 27 21 18 25
19 14 14 10 10 17 26 23 32 50 46 49 50 59 53 49 44 41 37 36 34 34 31 23 9 11 8
14 11 12 13 11 14 29 30 25 35 48 48 54 58 61 53 48 45 40 37 35 34 33 33 35 33 15
Wind_Direction_500mb
164 195 217 230 233 226 217 212 211 212 207 207 201 194 187 177 171 154 140 134 126 116 109 116 126 133 128
183 208 219 233 228 233 220 211 213 220 219 209 203 199 190 180 172 156 150 142 128 116 111 115 120 122 133
242 227 244 234 233 226 224 219 216 216 215 206 201 204 191 190 175 174 160 145 134 125 110 106 106 111 117
230 237 244 262 236 223 228 226 218 215 207 202 199 203 189 195 185 178 167 151 145 135 123 101 107 99 85
256 250 244 259 263 226 231 229 223 213 210 201 198 200 197 200 183 187 171 169 160 145 136 120 124 101 85
292 278 253 242 251 250 226 224 217 208 202 198 200 203 202 194 188 196 184 177 177 168 153 132 114 100 74
287 280 265 266 244 245 238 216 208 204 200 196 199 206 201 194 197 193 192 194 189 191 186 170 157 63 13
300 299 272 292 223 227 204 205 202 204 199 198 201 205 206 206 205 195 201 198 200 208 208 210 221 269 314
291 299 273 297 207 197 196 201 199 203 199 201 200 204 207 202 205 203 205 206 207 216 229 237 254 261 278
289 294 278 268 198 188 195 200 197 203 200 204 201 202 205 206 203 203 205 212 213 218 236 246 260 273 273
281 288 287 270 223 206 198 197 195 197 202 206 207 206 204 207 205 210 213 215 220 229 237 247 258 272 274
286 270 262 243 216 215 189 202 198 198 202 207 205 207 209 210 209 213 219 221 224 232 243 251 257 271 277
285 265 236 212 199 215 193 201 201 206 207 211 209 206 208 211 211 217 219 224 229 234 243 253 266 275 283
299 276 261 231 183 142 203 210 212 212 212 218 214 209 207 208 210 215 218 224 227 229 234 246 271 274 290
312 288 269 223 188 175 191 207 216 223 218 219 224 211 208 209 212 218 221 226 232 234 237 236 242 242 298
320 312 265 246 196 178 199 206 221 219 220 221 224 219 210 210 212 216 222 227 234 243 242 241 243 250 267
Wind_Speed_850mb
23 23 25 28 28 31 32 31 30 27 28 34 40 44 39 38 28 20 18 16 16 15 14 16 16 15 13
14 28 34 33 31 32 31 32 34 34 27 28 39 46 43 38 28 25 17 18 18 16 14 13 13 12 10
30 29 18 32 35 36 32 33 34 36 34 30 39 48 47 38 32 23 25 25 20 17 15 14 13 10 9
40 40 39 17 39 41 40 37 36 38 36 38 42 43 46 37 32 32 28 27 20 17 14 12 15 13 11
23 43 47 56 32 46 45 42 38 42 42 42 46 49 50 41 37 35 31 26 21 17 14 13 14 13 10
23 24 38 62 68 53 51 49 42 43 45 49 49 48 56 43 41 38 33 31 24 17 12 11 9 8 6
29 28 27 39 48 60 57 58 46 43 47 52 53 55 58 43 39 35 37 32 29 21 13 8 3 1 6
28 28 31 26 45 41 66 58 49 45 49 52 51 52 54 40 44 38 42 35 30 21 14 9 6 6 7
29 26 28 19 44 62 61 58 50 48 46 49 53 51 46 39 38 44 43 36 31 27 20 16 12 11 15
25 21 17 25 17 61 63 53 51 47 43 46 47 49 47 43 43 44 42 41 36 31 27 24 22 19 22
18 19 15 13 22 37 40 43 47 49 45 42 45 43 45 44 44 44 43 40 36 33 33 29 28 29 29
17 24 16 10 20 14 55 49 50 50 50 49 47 48 44 43 44 41 39 40 37 35 33 32 31 30 34
12 17 20 16 20 29 33 46 50 51 50 53 52 48 46 46 38 37 39 39 38 36 35 31 31 34 36
16 14 11 12 9 23 28 34 48 45 49 54 55 54 50 46 42 39 35 37 36 34 30 27 21 18 25
19 14 14 10 10 17 26 23 32 50 46 49 50 59 53 49 44 41 37 36 34 34 31 23 9 11 8
14 11 12 13 11 14 29 30 25 35 48 48 54 58 61 53 48 45 40 37 35 34 33 33 35 33 15
Wind_Direction_850mb
164 195 217 230 233 226 217 212 211 212 207 207 201 194 187 177 171 154 140 134 126 116 109 116 126 133 128
183 208 219 233 228 233 220 211 213 220 219 209 203 199 190 180 172 156 150 142 128 116 111 115 120 122 133
242 227 244 234 233 226 224 219 216 216 215 206 201 204 191 190 175 174 160 145 134 125 110 106 106 111 117
230 237 244 262 236 223 228 226 218 215 207 202 199 203 189 195 185 178 167 151 145 135 123 101 107 99 85
256 250 244 259 263 226 231 229 223 213 210 201 198 200 197 200 183 187 171 169 160 145 136 120 124 101 85
292 278 253 242 251 250 226 224 217 208 202 198 200 203 202 194 188 196 184 177 177 168 153 132 114 100 74
287 280 265 266 244 245 238 216 208 204 200 196 199 206 201 194 197 193 192 194 189 191 186 170 157 63 13
300 299 272 292 223 227 204 205 202 204 199 198 201 205 206 206 205 195 201 198 200 208 208 210 221 269 314
291 299 273 297 207 197 196 201 199 203 199 201 200 204 207 202 205 203 205 206 207 216 229 237 254 261 278
289 294 278 268 198 188 195 200 197 203 200 204 201 202 205 206 203 203 205 212 213 218 236 246 260 273 273
281 288 287 270 223 206 198 197 195 197 202 206 207 206 204 207 205 210 213 215 220 229 237 247 258 272 274
286 270 262 243 216 215 189 202 198 198 202 207 205 207 209 210 209 213 219 221 224 232 243 251 257 271 277
285 265 236 212 199 215 193 201 201 206 207 211 209 206 208 211 211 217 219 224 229 234 243 253 266 275 283
299 276 261 231 183 142 203 210 212 212 212 218 214 209 207 208 210 215 218 224 227 229 234 246 271 274 290
312 288 269 223 188 175 191 207 216 223 218 219 224 211 208 209 212 218 221 226 232 234 237 236 242 242 298
320 312 265 246 196 178 199 206 221 219 220 221 224 219 210 210 212 216 222 227 234 243 242 241 243 250 267